Content
SEND FEEDBACK

Daily
Averages
Monthly
Summary
United States of America

BERKELEY, MISSOURI


Home > North America > United States > Missouri
Elevation: 564 feet     Latitude: 38 45N     Longitude: 090 22W

WEATHER
 
SELECT A DAY
Number of Records: 206,743;   Date Range: 1/1/95 - 10/30/14
 
SHARE

PRINT THIS DATA

[ ← Previous Day ]
WEATHER ALMANAC - JANUARY 31, 2013
[ Next Day → ]
[ °C ]   °F
Weather ElementAverageHighLow
Temperature25.9 °F33.1 °F (11:51 am)12 °F (11:51 pm)
Dewpoint12.3 °F23 °F (2:07 pm)-2 °F (11:51 pm)
Humidity56.4 %75 % (2:07 pm)47 % (3:47 pm)
Barometer30.10 in30.42 in (11:51 pm)29.94 in (2:58 am)
Wind Speed18.4 mph26.5 mph (3:51 pm)
Wind Gust35.7 mph (3:47 pm)
Weather ElementAverage
Visibility8.6 mi
Wind DirectionWNW (284.1 °)

Weather ElementTotal
Precipitation---
Heating Degree Days42.5 (Base 65)
Averaged from 29 records on January 31, 2013
WEATHER CONDITIONS BREAKOUT
WIND DIRECTION BREAKOUT
WEATHER BY HOUR - JANUARY 31, 2013
[ °C ]   °F
Local TimeTemperatureDewpointHumidityBarometerVisibilityWind DirectionWind SpeedGust SpeedPrecipitationEventsConditions
1:51 AM28.0 °F14.0 °F56 %29.98 in9.0 miWest (280°)25.3 mph31.1 mph0.00 inSnowLight Snow
2:51 AM28.0 °F15.1 °F58 %29.98 in9.0 miWest (280°)16.1 mph0.00 inSnowLight Snow
2:58 AM28.4 °F15.8 °F59 %29.94 in9.0 miWest (270°)16.1 mph0.00 inSnowLight Snow
3:38 AM28.4 °F15.8 °F59 %29.94 in9.0 miWest (260°)17.3 mph0.00 inSnowLight Snow
3:51 AM28.0 °F14.0 °F56 %29.97 in9.0 miWest (280°)18.4 mph25.3 mph0.00 inSnowLight Snow
4:51 AM28.0 °F15.1 °F58 %29.97 in10.0 miWest (260°)17.3 mph24.2 mph0.00 inMostly Cloudy
5:51 AM28.0 °F16.0 °F61 %29.99 in10.0 miWest (270°)11.5 mphMostly Cloudy
6:51 AM27.0 °F15.1 °F61 %30.01 in10.0 miWest (260°)11.5 mphMostly Cloudy
7:51 AM28.0 °F15.1 °F58 %30.03 in10.0 miWest (260°)11.5 mphMostly Cloudy
8:51 AM28.9 °F16.0 °F58 %30.04 in10.0 miWSW (250°)16.1 mph19.6 mphOvercast
9:51 AM30.0 °F17.1 °F59 %30.07 in10.0 miWest (260°)18.4 mph24.2 mph0.00 inSnowLight Snow
10:51 AM32.0 °F17.1 °F54 %30.07 in10.0 miWest (260°)18.4 mph25.3 mph0.00 inMostly Cloudy
11:51 AM33.1 °F18.0 °F54 %30.05 in10.0 miWest (260°)18.4 mph21.9 mphOvercast
12:51 PM33.1 °F18.0 °F54 %30.04 in10.0 miWest (280°)20.7 mphOvercast
1:14 PM32.0 °F19.4 °F60 %30.00 in3.0 miWNW (290°)12.7 mph0.00 inSnowLight Snow
1:18 PM32.0 °F21.2 °F64 %30.00 in2.0 miWNW (300°)11.5 mph0.00 inSnowLight Snow
2:07 PM30.2 °F23.0 °F75 %30.02 in2.0 miWNW (290°)17.3 mph23.0 mph0.00 inSnowLight Snow
2:51 PM30.0 °F18.0 °F61 %30.09 in3.0 miWNW (300°)20.7 mph32.2 mph0.00 inSnowLight Snow
2:59 PM28.4 °F15.8 °F59 %30.05 in5.0 miNW (310°)23.0 mph31.1 mph0.00 inSnowLight Snow
3:47 PM26.6 °F8.6 °F47 %30.08 in10.0 miWNW (300°)23.0 mph35.7 mph0.00 inOvercast
3:51 PM27.0 °F9.0 °F47 %30.12 in10.0 miNW (310°)26.5 mph34.5 mph0.00 inMostly Cloudy
4:51 PM23.0 °F8.1 °F53 %30.18 in10.0 miNW (310°)26.5 mph34.5 mphMostly Cloudy
5:51 PM19.9 °F6.1 °F55 %30.22 in10.0 miWNW (300°)17.3 mph28.8 mphScattered Clouds
6:51 PM19.0 °F3.9 °F52 %30.27 in10.0 miWNW (290°)20.7 mph29.9 mphScattered Clouds
7:51 PM19.0 °F3.0 °F50 %30.30 in10.0 miWNW (300°)21.9 mph31.1 mphMostly Cloudy
8:51 PM17.1 °F1.0 °F50 %30.34 in10.0 miWNW (300°)19.6 mph32.2 mphScattered Clouds
9:51 PM14.0 °F-0.9 °F52 %30.38 in10.0 miNW (310°)18.4 mph28.8 mphPartly Cloudy
10:51 PM12.9 °F-0.9 °F54 %30.40 in10.0 miWNW (300°)18.4 mph29.9 mphPartly Cloudy
11:51 PM12.0 °F-2.0 °F53 %30.42 in10.0 miWNW (300°)18.4 mph31.1 mphPartly Cloudy
Hourly data recorded from KSTL, located miles away from Berkeley, Missouri







STORIES FROM OUR PARTNERS